Battle Mountain, Nevada, United States (89820)
Lat: 40.64N, Lon: 116.93W
Wx Zone: NVZ036
Local Info
Past Weather Observations for Saturday, February 28, 2015

NOTE: This archive is for the closest National Weather Service station to Battle Mountain. Information may differ from the station used for current weather conditions.

Click here for Long-term Archive

Time Weather Temperature Dewpoint Humidity Pressure Winds Precip Visibility
23:56
Overcast
34°F / 1°C 27°F / -3°C 75% 29.98 in
(1015 mb)
NE 11.5 mph
(NE 19 kph)
- 10SM
22:56
Overcast
36°F / 2°C 27°F / -3°C 70% 29.98 in
(1015 mb)
Variable 4.6 mph
(Variable 7 kph)
- 10SM
21:56
Overcast
36°F / 2°C 27°F / -3°C 70% 29.95 in
(1014 mb)
NE 16.1 mph
(NE 26 kph)
- 10SM
20:56
Overcast
36°F / 2°C 25°F / -4°C 65% 29.92 in
(1013 mb)
NE 18.4 mph
(NE 30 kph)
- 10SM
19:56
Partly Cloudy
36°F / 2°C 27°F / -3°C 70% 29.89 in
(1012 mb)
NE 13.8 mph
(NE 22 kph)
- 10SM
18:56
Mostly Cloudy
36°F / 2°C 27°F / -3°C 70% 29.86 in
(1011 mb)
NNE 11.5 mph
(NNE 19 kph)
- 10SM
17:56
Overcast
37°F / 3°C 28°F / -2°C 70% 29.83 in
(1010 mb)
NE 17.3 mph
(NE 28 kph)
- 10SM
16:56
Overcast
39°F / 4°C 34°F / 1°C 81% 29.8 in
(1009 mb)
NNE 6.9 mph
(NNE 11 kph)
0.00 in
(0.00 mm)
10SM
14:56
Overcast
43°F / 6°C 32°F / 0°C 66% 29.77 in
(1008 mb)
ENE 13.8 mph
(ENE 22 kph)
- 10SM
13:56
Overcast
43°F / 6°C 30°F / -1°C 61% 29.74 in
(1007 mb)
NNW 11.5 mph
(NNW 19 kph)
0.00 in
(0.00 mm)
10SM
12:56
Overcast
45°F / 7°C 30°F / -1°C 57% 29.74 in
(1007 mb)
NNW 12.7 mph
(NNW 20 kph)
- 10SM
11:56
Mostly Cloudy
43°F / 6°C 32°F / 0°C 66% 29.74 in
(1007 mb)
NW 6.9 mph
(NW 11 kph)
- 10SM
11:13
Overcast
43°F / 6°C 32°F / 0°C 66% 29.74 in
(1007 mb)
NE 4.6 mph
(NE 7 kph)
- 10SM
10:56
Mostly Cloudy
43°F / 6°C 30°F / -1°C 61% 29.74 in
(1007 mb)
Variable 5.8 mph
(Variable 9 kph)
- 10SM
10:48
Overcast
41°F / 5°C 34°F / 1°C 76% 29.74 in
(1007 mb)
N 5.8 mph
(N 9 kph)
- 10SM
09:56
Mostly Cloudy
37°F / 3°C 32°F / 0°C 81% 29.71 in
(1006 mb)
Variable 6.9 mph
(Variable 11 kph)
- 10SM
08:56
Overcast
34°F / 1°C 32°F / 0°C 93% 29.71 in
(1006 mb)
Variable 4.6 mph
(Variable 7 kph)
- 10SM
08:44
Overcast
34°F / 1°C 32°F / 0°C 93% 29.71 in
(1006 mb)
WNW 5.8 mph
(WNW 9 kph)
- 10SM
07:56
Overcast
32°F / 0°C 30°F / -1°C 93% 29.68 in
(1005 mb)
NW 6.9 mph
(NW 11 kph)
- 10SM
07:47
Overcast
32°F / 0°C 30°F / -1°C 93% 29.68 in
(1005 mb)
N 6.9 mph
(N 11 kph)
- 10SM
07:16
Overcast
30°F / -1°C 30°F / -1°C 100% 29.68 in
(1005 mb)
Calm - 7SM
06:56
Overcast
Fog And Mist
30°F / -1°C 30°F / -1°C 100% 29.68 in
(1005 mb)
Calm - 6SM
06:39
Overcast
30°F / -1°C 30°F / -1°C 100% 29.68 in
(1005 mb)
Calm - 7SM
06:09
Overcast
30°F / -1°C 30°F / -1°C 100% 29.65 in
(1004 mb)
Calm - 8SM
05:56
Overcast
30°F / -1°C 30°F / -1°C 100% 29.65 in
(1004 mb)
Calm - 10SM
05:19
Overcast
30°F / -1°C 30°F / -1°C 100% 29.65 in
(1004 mb)
Calm - 10SM
04:56
Overcast
30°F / -1°C 30°F / -1°C 100% 29.65 in
(1004 mb)
Calm - 10SM
04:37
Overcast
Fog And Mist
30°F / -1°C 30°F / -1°C 100% 29.65 in
(1004 mb)
Calm - 4SM
04:34
Overcast
Fog And Mist
30°F / -1°C 30°F / -1°C 100% 29.65 in
(1004 mb)
Calm - 1 1/2SM
03:56
Obscured
Fog
30°F / -1°C 30°F / -1°C 100% 29.62 in
(1003 mb)
Calm - 1/2SM
03:51
Obscured
Fog
30°F / -1°C 30°F / -1°C 100% 29.62 in
(1003 mb)
Calm - 1/4SM
03:07
Obscured
Fog And Mist
30°F / -1°C 30°F / -1°C 100% 29.62 in
(1003 mb)
Calm - 3/4SM
03:00
Obscured
Fog And Mist
30°F / -1°C 30°F / -1°C 100% 29.62 in
(1003 mb)
S 3.5 mph
(S 6 kph)
- 1SM
02:56
Obscured
Fog And Mist
30°F / -1°C 30°F / -1°C 100% 29.62 in
(1003 mb)
S 3.5 mph
(S 6 kph)
- 3/4SM
02:52
Obscured
Fog
30°F / -1°C 30°F / -1°C 100% 29.62 in
(1003 mb)
Calm - 1/2SM
02:41
Obscured
Fog
30°F / -1°C 30°F / -1°C 100% 29.62 in
(1003 mb)
Calm - 1/4SM
02:21
Fog
30°F / -1°C 30°F / -1°C 100% 29.65 in
(1004 mb)
Calm - 1/2SM
02:03
Overcast
Fog And Mist
30°F / -1°C 30°F / -1°C 100% 29.65 in
(1004 mb)
Calm - 2 1/2SM
01:56
Overcast
Fog And Mist
30°F / -1°C 30°F / -1°C 100% 29.65 in
(1004 mb)
Calm - 1 1/2SM
01:47
Overcast
Fog
30°F / -1°C 30°F / -1°C 100% 29.65 in
(1004 mb)
Calm - 1/2SM
01:39
Obscured
Fog
30°F / -1°C 30°F / -1°C 100% 29.62 in
(1003 mb)
Calm - 1/4SM
01:25
Overcast
Fog And Mist
30°F / -1°C 30°F / -1°C 100% 29.62 in
(1003 mb)
SSW 3.5 mph
(SSW 6 kph)
- 3/4SM
01:16
Overcast
Fog And Mist
30°F / -1°C 30°F / -1°C 100% 29.62 in
(1003 mb)
Calm - 1 1/2SM
00:56
Overcast
Fog And Mist
30°F / -1°C 30°F / -1°C 100% 29.62 in
(1003 mb)
Calm - 1SM
00:36
Overcast
Fog And Mist
30°F / -1°C 30°F / -1°C 100% 29.62 in
(1003 mb)
Calm - 3/4SM
00:24
Overcast
Fog And Mist
30°F / -1°C 30°F / -1°C 100% 29.62 in
(1003 mb)
Calm - 1 1/2SM
00:18
Overcast
Fog And Mist
30°F / -1°C 28°F / -2°C 93% 29.62 in
(1003 mb)
Calm - 1SM
00:10
Overcast
Fog And Mist
30°F / -1°C 28°F / -2°C 93% 29.62 in
(1003 mb)
Calm - 3/4SM
00:01
Overcast
Fog
30°F / -1°C 30°F / -1°C 100% 29.62 in
(1003 mb)
Calm - 1/2SM
Time Weather Temperature Dewpoint Humidity Pressure Winds Precip Visibility


Weather for websites

WeatherForYou.com, LLC is not responsible for any damages or problems caused by this service. Current weather conditions are obtained from the closest station including government and personal stations which may have varying degrees of accuracy. Weather forecasts are derived from the NOAA NDFD. Like all things, this site belongs to Jesus Christ... He just trusts me to maintain it. If you have any questions or comments email webmaster@weatherforyou.com

Copyright © 2015, WeatherForYou.com LLC. All rights reserved.